Location: Dallas(GA)
(33.9240°N, 84.8410°W)
Time: 21:36:55
(UTC-04:00)

N. Korean satellite - Pass Details

Date: 01 October 2020
Orbit: 453 x 505 km, 97.2° (Epoch: 25 October)

Event Time Altitude Azimuth Distance (km) Brightness Sun altitude
Rises 06:35:15 0° 23° (NNE) 2,550 10.6 -13.1°
Reaches altitude 10° 06:37:32 10° 35° (NE) 1,655 9.8 -12.6°
Maximum altitude 06:40:39 28° 97° (E) 905 8.8 -11.9°
Drops below altitude 10° 06:43:42 10° 158° (SSE) 1,618 9.4 -11.3°
Sets 06:45:54 0° 170° (S) 2,480 10.3 -10.8°
